Probability
0 0 0 0 0 0 0 0 0 0 0 0 0 0 0 0 0 0 0 0 0 0 0 0 0 0 0 0 0 0 0 0 0 0 0 0 0 0 0 0 0 0 0 0
0 0 0 0 0 0 0 0 0 0 0 0 0 0 0 0 0 0 0 0 0 0 0 0 0 0 0 0 0 0 0 0 0 0 0 0 0 0 0 0 0 0 0 0
0 0 0 0 0 0 0 0 0 0 0 0 0 0 0 0 0 0 0 0 0 0 0 0 0 0 0 0 0 0 0 0 0 0 0 0 0 0 0 0 0 0 0 0
0 0 0 0 0 0 0 0 0 0 0 0 0 0 0 0 0 0 0 0 0 0 0 0 0 0 0 0 0 0 0 0 0 0 0 0 0 0 0 0 0 0 0 0
0 0 0 0 0 0 0 0 0 0 0 0 0 0 0 0 0 0 0 0 0 0 0 0 0 0 0 0 0 0 0 0 0 0 0 0 0 0 0 0 0 0 0 0
0 0 0 0 0 0 0 0 0 0 0 0 0 0 0 0 0 0 0 0 0 0 0 0 0 0 0 0 0 0 0 0 0 0 0 0 0 0 0 0 0 0 0 0
0 0 0 0 0 0 0 0 0 0 0 0 0 0 0 0 0 0 0 0 0 0 0 0 0 0 0 0 0 0 0 0 0 0 0 0 0 0 0 0 0 0 0 0
0 0 0 0 0 0 0 0 0 0 0 0 0 0 0 0 0 0 0 0 0 0 0 0 0 0 0 0 0 0 0 0 0 0 0 0 0 0 0 0 0 0 0 0
0 0 0 0 0 0 0 0 0 0 0 0 0 0 0 0 0 0 0 0 0 0 0 0 0 0 0 0 0 0 0 0 0 0 0 0 0 0 0 0 0 0 0 0
0 0 0 0 0 0 0 0 0 0 0 0 0 0 0 0 0 0 0 0 0 0 0 0 0 0 0 0 0 0 0 0 0 0 0 0 0 0 0 0 0 0 0 0
0 0 0 0 0 0 0 0 0 0 0 0 0 0 0 0 0 0 0 0 0 0 0 0 0 0 0 0 0 0 0 0 0 0 0 0 0 0 0 0 0 0 0 0
0 0 0 0 0 0 0 0 0 0 0 0 0 0 0 0 0 0 0 0 0 0 0 0 0 0 0 0 0 0 0 0 0 0 0 0 0 0 0 0 0 0 0 0
0 0 0 0 0 0 0 0 0 0 0 0 0 0 0 0 0 0 0 0 0 0 0 0 0 0 0 0 0 0 0 0 0 0 0 0 0 0 0 0 0 0 0 0
0 0 0 0 0 0 0 0 0 0 0 0 0 0 0 0 0 0 0 0 0 0 0 0 0 0 0 0 0 0 0 0 0 0 0 0 0 0 0 0 0 0 0 0
0 0 0 0 0 0 0 0 0 0 0 0 0 0 0 0 0 0 0 0 0 0 0 0 0 0 0 0 0 0 0 0 0 0 0 0 0 0 0 0 0 0 0 0
0 0 0 0 0 0 0 0 0 0 0 0 0 0 0 0 0 0 0 0 0 0 0 0 0 0 0 0 0 0 0 0 0 0 0 0 0 0 0 0 0 0 0 0
0 0 0 0 0 0 0 0 0 0 0 0 0 0 0 0 0 0 0 0 0 0 0 0 0 0 0 0 0 0 0 0 0 0 0 0 0 0 0 0 0 0 0 0
0 0 0 0 0 0 0 0 0 0 0 0 0 0 0 0 0 0 0 0 0 0 0 0 0 0 0 0 0 0 0 0 0 0 0 0 0 0 0 0 0 0 0 0
0 0 0 0 0 0 0 0 0 0 0 0 0 0 0 0 0 0 0 0 0 0 0 0 0 0 0 0 0 0 0 0 0 0 0 0 0 0 0 0 0 0 0 0
0 0 0 0 0 0 0 0 0 0 0 0 0 0 0 0 0 0 0 0 0 0 0 0 0 0 0 0 0 0 0 0 0 0 0 0 0 0 0 0 0 0 0 0
0 0 0 0 0 0 0 0 0 0 0 0 0 0 0 0 0 0 0 0 0 0 0 0 0 0 0 0 0 0 0 0 0 0 0 0 0 0 0 0 0 0 0 0
0 0 0 0 0 0 0 0 0 0 0 0 0 0 0 0 0 0 0 0 0 0 0 0 0 0 0 0 0 0 0 0 0 0 0 0 0 0 0 0 0 0 0 0
0 0 0 0 0 0 0 0 0 0 0 0 0 0 0 0 0 0 0 0 0 0 0 0 0 0 0 0 0 0 0 0 0 0 0 0 0 0 0 0 0 0 0 0
0 0 0 0 0 0 0 0 0 0 0 0 0 0 0 0 0 0 0 0 0 0 0 0 0 0 0 0 0 0 0 0 0 0 0 0 0 0 0 0 0 0 0 0
0 0 0 0 0 0 0 0 0 0 0 0 0 0 0 0 0 0 0 0 0 0 0 0 0 0 0 0 0 0 0 0 0 0 0 0 0 0 0 0 0 0 0 0
0 0 0 0 0 0 0 0 0 0 0 0 0 0 0 0 0 0 0 0 0 0 0 0 0 0 0 0 0 0 0 0 0 0 0 0 0 0 0 0 0 0 0 0
0 0 0 0 0 0 0 0 0 0 0 0 0 0 0 0 0 0 0 0 0 0 0 0 0 0 0 0 0 0 0 0 0 0 0 0 0 0 0 0 0 0 0 0
Wind_Speed
4 3 3 4 6 7 7 7 7 7 7 9 6 5 4 3 4 6 7 8 9 9 9 9 8 8 8 7 7 8 8 7 7 6 5 5 5 5 4 4 4 4 4 3
1 2 3 3 5 7 7 6 7 6 9 8 5 2 2 3 5 7 8 9 9 9 10 10 11 10 9 8 8 8 8 8 6 6 6 6 6 5 5 4 4 4 3 3
1 1 1 4 6 8 6 6 7 8 9 4 2 2 4 4 6 7 8 8 9 10 11 11 11 11 11 10 8 9 8 7 7 7 7 6 6 6 5 5 4 4 3 3
2 2 3 7 3 5 5 5 6 6 6 5 4 3 2 3 6 7 7 7 8 8 8 8 8 9 8 8 9 9 8 8 8 8 7 6 6 6 5 4 4 4 4 4
3 2 4 6 2 3 4 4 5 7 6 3 1 2 3 2 4 6 6 7 7 7 7 7 9 9 9 9 9 9 9 9 9 9 8 8 8 7 5 5 4 4 4 4
4 3 4 6 3 1 3 3 4 5 5 3 3 1 5 3 2 2 2 3 4 4 5 7 7 9 10 9 9 10 11 10 9 9 10 10 9 7 5 5 5 5 4 4
4 3 7 7 3 3 3 6 3 3 4 5 5 5 3 1 0 1 1 1 3 4 5 6 7 9 9 9 11 10 8 8 8 9 9 8 7 6 5 5 5 4 4 3
5 3 7 3 3 5 6 3 1 2 2 4 3 1 1 0 1 1 2 2 3 4 3 4 6 9 9 10 9 7 7 8 8 8 7 7 7 6 6 6 6 4 3 3
8 7 5 2 5 4 2 2 2 2 2 3 2 1 0 1 1 1 1 2 2 4 4 3 5 7 8 7 6 7 8 8 7 7 6 7 8 8 6 5 5 5 4 4
2 5 3 2 2 2 2 2 1 2 2 3 3 1 1 1 2 2 1 1 2 3 4 3 3 5 5 5 6 7 7 7 6 7 6 6 5 6 6 7 6 6 5 5
2 4 2 3 2 1 1 2 3 3 2 2 3 2 2 2 2 1 1 1 2 3 3 3 3 3 3 4 7 7 6 6 6 6 6 6 6 6 8 8 9 9 8 7
6 6 5 3 2 1 3 2 3 4 3 3 2 2 2 2 1 2 2 2 2 2 2 1 2 2 2 4 6 7 5 5 5 5 5 5 5 3 5 5 7 9 8 8
4 3 4 2 1 1 2 2 3 3 3 2 2 2 3 2 2 2 2 2 2 2 2 2 2 2 1 3 5 6 6 5 4 5 5 5 5 5 4 3 4 6 8 9
3 4 2 1 1 1 2 3 4 4 3 3 3 3 4 4 3 3 2 1 2 3 3 2 3 1 0 2 4 4 4 5 5 4 5 5 5 5 5 4 3 4 6 9
1 3 4 3 3 3 3 4 5 4 3 3 3 4 4 4 3 2 2 2 3 4 3 3 3 2 1 2 3 3 3 3 3 3 3 4 4 4 4 4 4 3 2 3
3 3 4 4 3 3 3 4 4 2 2 2 2 3 3 3 3 3 3 3 4 3 2 2 2 1 1 2 2 2 2 3 3 3 2 3 3 3 4 4 4 4 4 4
6 4 3 3 3 2 2 2 3 3 2 2 2 2 3 4 4 4 4 3 3 3 2 2 1 2 2 2 2 1 1 1 3 2 2 2 3 3 4 4 4 5 5 5
5 6 6 6 5 4 2 2 2 3 2 2 3 4 4 4 3 2 3 3 4 5 4 2 2 2 2 2 1 1 1 1 1 1 2 2 2 3 3 4 5 5 4 4
4 4 4 3 4 4 3 3 2 2 2 3 4 4 3 3 3 2 3 4 4 3 3 3 4 3 2 2 2 1 1 1 0 1 1 2 2 2 3 3 4 4 4 4
3 4 4 4 4 4 3 3 3 3 3 4 5 5 4 3 3 3 4 3 2 1 1 2 3 2 2 2 3 1 1 0 0 1 1 1 2 2 3 3 4 4 4 4
4 5 5 5 4 4 3 3 4 4 3 4 5 5 4 3 3 3 4 3 3 2 2 4 3 2 2 2 3 1 1 0 0 1 1 2 2 3 3 3 4 4 5 4
4 4 5 5 6 4 3 3 4 5 5 5 5 5 5 4 3 3 2 1 1 2 3 2 2 2 3 3 1 1 1 0 1 1 1 2 2 3 4 4 4 5 4 5
3 4 5 5 6 5 5 4 5 5 5 5 4 4 3 2 1 2 1 1 1 3 3 2 3 5 5 3 1 1 1 1 1 2 2 3 3 3 4 4 4 4 4 5
4 4 4 5 6 7 5 4 4 4 4 4 3 3 3 2 2 1 1 1 2 3 2 2 4 5 5 2 1 1 1 2 2 2 2 3 3 3 4 4 4 4 5 5
5 5 5 6 5 4 4 4 5 5 4 3 3 2 1 1 1 0 1 1 2 3 2 3 5 5 3 2 1 2 2 2 3 3 2 3 3 4 4 4 4 4 4 5
4 4 3 3 3 4 3 4 3 3 3 3 2 1 1 1 1 1 1 1 1 2 2 2 2 3 2 2 2 2 2 3 3 3 3 4 4 4 4 4 5 4 4 4
4 4 4 4 3 2 3 3 3 2 2 2 1 0 1 1 1 1 1 1 1 1 2 2 2 2 2 2 3 3 3 3 3 3 3 3 4 4 4 5 4 4 4 4
Wind_Direction
223 210 175 200 199 187 193 198 203 236 245 263 265 250 242 214 188 181 184 189 190 190 191 187 185 185 184 183 176 169 167 175 182 174 163 157 156 156 151 148 150 144 134 129
284 236 204 239 228 205 213 217 228 253 269 261 257 230 229 212 194 195 197 198 198 193 190 190 190 188 184 183 178 169 173 182 174 159 158 162 161 153 148 146 141 137 146 148
259 309 74 271 232 203 205 205 195 223 243 256 265 234 225 218 207 209 207 202 197 196 197 196 193 187 186 183 169 171 177 174 169 165 166 169 162 153 157 159 150 149 156 155
145 94 236 247 234 196 202 230 215 228 247 230 224 239 247 229 210 215 209 203 202 198 198 195 185 181 176 164 167 175 177 175 172 169 169 162 158 163 164 157 161 164 168 170
128 172 276 290 256 182 192 260 227 220 239 245 205 31 328 267 218 218 212 205 203 198 190 181 179 174 165 167 170 175 182 182 179 173 167 165 170 172 167 161 167 170 170 169
134 157 235 253 268 200 127 291 260 197 211 196 120 103 274 278 244 227 218 198 189 175 164 171 175 163 163 173 176 188 191 187 178 173 173 177 179 172 163 163 170 165 166 177
156 195 257 258 271 118 147 241 268 183 188 168 178 202 242 271 232 168 151 143 143 146 162 177 166 161 170 177 194 197 184 172 170 175 179 178 170 165 158 156 152 161 171 186
151 180 250 269 139 175 214 232 211 183 172 169 195 230 294 350 66 66 74 98 130 141 154 158 161 165 176 194 198 172 161 165 172 175 176 170 163 164 161 157 159 169 177 200
181 204 234 224 218 236 196 193 211 175 174 154 154 177 118 64 74 76 84 111 135 143 140 142 162 171 187 199 167 157 161 169 172 170 172 167 169 168 161 166 171 181 186 204
206 260 260 275 276 277 203 198 192 147 139 130 136 136 97 72 62 70 73 109 126 127 132 152 174 179 187 173 158 158 167 171 167 167 171 170 173 173 174 180 185 189 194 207
212 262 314 323 288 256 105 88 84 83 88 106 114 99 99 90 76 79 75 80 117 139 157 176 172 176 171 152 152 161 169 170 171 175 175 177 184 191 192 199 193 191 200 199
206 212 179 225 266 151 112 106 118 102 69 55 96 114 87 79 72 86 86 92 101 112 129 152 146 156 161 156 156 158 165 174 177 176 177 178 181 201 225 216 213 210 205 195
191 161 159 189 75 113 121 119 101 99 102 83 62 91 91 75 57 71 77 85 108 122 123 119 114 115 142 158 160 166 175 179 176 176 178 180 181 188 209 239 229 221 215 210
160 126 120 153 154 122 115 105 94 81 68 76 79 79 84 77 65 62 56 65 93 94 86 89 88 57 29 153 159 168 170 171 173 181 182 184 189 194 195 196 210 239 234 224
158 152 159 140 99 82 89 97 91 81 72 61 68 77 81 82 71 48 40 67 82 80 76 79 74 31 37 119 150 166 168 175 178 179 182 187 188 188 195 203 212 223 237 242
135 106 110 109 115 109 100 104 110 114 103 86 76 75 80 87 78 58 53 74 85 76 65 72 63 15 73 111 124 148 175 170 162 166 169 178 182 186 199 207 214 220 227 230
140 150 147 146 158 156 146 148 153 150 128 118 110 96 89 83 69 52 40 45 71 73 62 65 36 28 69 101 120 131 139 160 156 154 173 187 189 200 208 210 218 227 234 228
174 176 173 171 173 168 151 129 129 131 138 135 111 102 98 95 86 63 47 56 60 47 30 23 36 52 65 77 96 117 123 138 163 183 191 201 210 216 216 219 224 231 243 237
154 155 157 159 159 153 150 144 136 131 123 120 113 106 95 88 86 80 70 69 67 46 360 2 36 52 55 59 71 95 106 108 120 212 209 209 216 225 225 227 231 233 233 229
132 125 123 116 110 120 125 120 115 107 107 114 109 100 88 79 84 81 72 60 33 315 309 4 33 40 28 34 52 68 79 114 202 246 236 224 227 236 239 239 240 241 237 235
132 125 121 118 105 94 101 112 113 106 96 102 109 110 103 85 78 83 84 55 346 351 18 35 37 19 9 29 44 57 61 357 268 255 250 248 247 247 247 247 247 245 242 241
134 128 124 119 111 97 86 93 101 101 95 91 94 102 100 89 74 64 57 90 309 9 24 24 16 14 21 36 45 39 24 341 295 275 262 258 256 256 255 253 250 249 246 244
129 126 125 125 122 113 92 86 94 101 103 105 107 109 111 112 109 105 48 336 1 28 28 19 15 21 27 32 35 25 358 326 294 275 267 263 262 262 263 262 258 255 251 249
117 116 118 116 111 106 98 90 89 92 94 91 96 111 120 105 51 28 146 8 26 25 24 18 22 22 20 19 10 352 326 305 291 281 277 276 274 272 268 266 265 261 256 253
115 112 114 117 116 119 122 113 97 92 90 81 68 57 59 104 132 174 21 29 29 19 12 7 9 5 3 347 336 319 307 297 295 293 284 283 282 280 277 273 270 269 267 261
118 120 122 124 129 132 129 120 112 108 106 95 61 39 50 66 86 67 29 8 19 5 354 342 338 343 337 325 317 311 307 309 314 310 298 291 285 282 280 280 278 275 274 272
102 104 102 93 88 109 120 122 123 126 129 129 116 27 41 57 59 47 22 352 342 337 327 321 319 317 315 314 312 309 307 306 304 300 297 294 291 288 285 282 280 280 280 278